QZS-3 (MICHIBIKI-3)

Last updated on Tue Sep 22 2026 00:03:14 GMT+0000 (Coordinated Universal Time)

1 42917U 17048A 26264.30039650 -.00000352 00000+0 00000+0 0 9998 2 42917 0.0613 143.5247 0001636 14.9055 76.9619 1.00270704 33220
UTC large
Height (km)
Speed (km/s)
/
Latitude / Longitude
Inclination (degrees)
Orbital Period (minutes)
Azimuth
Elevation
Range (km)
Doppler Factor

Next 0 passes for location: London (51.5072 / 0.1276)

No passes found over London.
QZS-3 (MICHIBIKI-3)